Regional Weather Roundup
Issued by NWS

Home | Current Version | Previous Version | Text Only | Print | Product List | Glossary Off
Versions: 1 2 3 4 5 6 7 8 9 10 11 12 13 14 15 16 17 18 19 20 21 22 23 24 25 26 27 28 29 30 31 32 33 34 35 36 37 38 39 40 41 42 43 44 45 46 47 48 49 50

000
ASUS43 KBIS 251002
RWRND

NORTH DAKOTA REGIONAL WEATHER ROUNDUP
NATIONAL WEATHER SERVICE BISMARCK ND
400 AM CST SAT FEB 25 2017

NOTE: "FAIR" INDICATES FEW OR NO CLOUDS BELOW 12,000 FEET WITH NO
SIGNIFICANT WEATHER AND/OR OBSTRUCTIONS TO VISIBILITY.


NDZ001>003-009>011-017-251100-
NORTHWEST NORTH DAKOTA

CITY           SKY/WX    TMP DP  RH WIND       PRES   REMARKS
WILLISTON      CLOUDY    22  19  89 CALM      29.95F
MINOT          FAIR      23  18  81 W9        29.92F WCI  13
$$

NDZ018>021-031>035-040>046-251100-
SOUTHWEST NORTH DAKOTA

CITY           SKY/WX    TMP DP  RH WIND       PRES   REMARKS
BISMARCK       CLOUDY    17  14  88 CALM      29.98F
DICKINSON      CLOUDY    20  14  77 W5        29.90F WCI  13
GARRISON         N/A     21  17  84 W7        29.93F WCI  12
HETTINGER ARPT CLOUDY    20  15  81 SW5       29.95F WCI  13
$$

NDZ004>008-012>016-024-026-027-054-251100-
NORTHEAST NORTH DAKOTA

CITY           SKY/WX    TMP DP  RH WIND       PRES   REMARKS
GRAND FORKS    CLOUDY    19  11  70 SW3       29.99F
GRND FRKS AFB  FLURRIES  19  14  83 SW8       29.98F WCI   8
DEVILS LAKE    CLOUDY    20  16  84 SW8       29.94F WCI  10
$$

NDZ022-023-025-028>030-036>039-047>053-251100-
SOUTHEAST NORTH DAKOTA

CITY           SKY/WX    TMP DP  RH WIND       PRES   REMARKS
FARGO          CLEAR     14  11  87 S5        30.02F WCI   6
JAMESTOWN      FAIR      15  11  83 W6        29.97F WCI   6
$$





USA.gov is the U.S. government's official web portal to all federal, state and local government web resources and services.